This is the latest recevied weather packets stored in our database for station/object MB7UUE. If no packets are shown the sender has not sent any weather packets the latest 10 day(s).
| Time | Temp. | Humidity | Pressure | Rain* | Wind** | Luminosity | Snow |
|---|---|---|---|---|---|---|---|
| 1778208478 | 6.11° C | 80% | 1016.2 hPa | 0 mm | - | - | - |
| 1778207339 | 6.67° C | 80% | 1016.2 hPa | 0 mm | - | - | - |
| 1778206199 | 6.67° C | 80% | 1016.2 hPa | 0 mm | - | - | - |
| 1778205060 | 7.22° C | 79% | 1016.2 hPa | 0 mm | - | - | - |
| 1778203919 | 7.78° C | 79% | 1016.3 hPa | 0 mm | - | - | - |
| 1778202779 | 7.78° C | 79% | 1016.3 hPa | 0 mm | - | - | - |
| 1778201638 | 8.33° C | 79% | 1016.2 hPa | 0 mm | - | - | - |
| 1778200499 | 8.89° C | 79% | 1016.2 hPa | 0 mm | - | - | - |
| 1778199358 | 9.44° C | 79% | 1016.2 hPa | 0 mm | - | - | - |
| 1778198217 | 9.44° C | 79% | 1016.5 hPa | 0 mm | - | - | - |
| 1778197078 | 10° C | 78% | 1016.6 hPa | 0 mm | - | - | - |
| 1778195937 | 10° C | 78% | 1016.8 hPa | 0 mm | - | - | - |
| 1778194797 | 10.56° C | 78% | 1016.7 hPa | 0 mm | - | - | - |
| 1778193689 | 10.56° C | 78% | 1016.9 hPa | 0 mm | - | - | - |
| 1778193658 | 10.56° C | 78% | 1016.9 hPa | 0 mm | - | - | - |
| 1778192519 | 11.11° C | 78% | 1016.9 hPa | 0 mm | - | - | - |
| 1778191379 | 11.11° C | 77% | 1016.8 hPa | 0 mm | - | - | - |
| 1778190238 | 11.67° C | 76% | 1016.9 hPa | 0 mm | - | - | - |
| 1778189099 | 11.67° C | 75% | 1016.9 hPa | 0 mm | - | - | - |
| 1778189099 | 11.67° C | 75% | 1016.9 hPa | 0 mm | - | - | - |
| 1778187958 | 11.67° C | 75% | 1016.8 hPa | 0 mm | - | - | - |
| 1778186819 | 12.22° C | 75% | 1016.6 hPa | 0 mm | - | - | - |
| 1778185678 | 12.22° C | 74% | 1016.5 hPa | 0 mm | - | - | - |
| 1778185678 | 12.22° C | 74% | 1016.5 hPa | 0 mm | - | - | - |
| 1778184538 | 12.22° C | 74% | 1016.4 hPa | 0 mm | - | - | - |
* Rain latest hour (hover to see other rain measurements)
** Current wind speed in m/s (hover to see current wind gust speed)